LOT570 LYBE-EPKT

Flight info

Callsign LOT570
Flight time 1h 2m
Altitude 34000
Route TISAK DCT PARAK DCT LITKU DCT MEBAN
Aircraft B38M/M-SDE1FGHILORVWXY/HB1

Departure

Time 2026-05-06 08:13
Airport Belgrade Nikola Tesla Airport (LYBE)

Arrival

Time 2026-05-06 09:16
Airport Katowice Wojciech Korfanty International Airport (EPKT)
Time Latitude Longitude Altitude Speed Heading
2026-05-06 08:00 44.81931 20.29284 309 ft 0 kts 302°
2026-05-06 08:03 44.81925 20.29298 309 ft 3 kts 302°
2026-05-06 08:03 44.81914 20.29322 307 ft 3 kts 302°
2026-05-06 08:03 44.81903 20.29344 309 ft 3 kts 319°
2026-05-06 08:04 44.81902 20.29353 309 ft 3 kts 27°
2026-05-06 08:04 44.81900 20.29352 309 ft 2 kts 32°
2026-05-06 08:04 44.81885 20.29339 309 ft 2 kts 32°
2026-05-06 08:04 44.81882 20.29336 308 ft 1 kts 32°
2026-05-06 08:08 44.81893 20.29346 309 ft 6 kts 32°
2026-05-06 08:08 44.81967 20.29411 310 ft 16 kts 32°
2026-05-06 08:08 44.82054 20.29487 311 ft 16 kts 32°
2026-05-06 08:08 44.82118 20.29542 312 ft 7 kts 27°
2026-05-06 08:09 44.82135 20.29558 310 ft 0 kts 35°
2026-05-06 08:11 44.82136 20.29559 310 ft 1 kts 35°
2026-05-06 08:11 44.82160 20.29582 313 ft 5 kts 34°
2026-05-06 08:11 44.82199 20.29620 311 ft 8 kts 37°
2026-05-06 08:12 44.82206 20.29637 312 ft 1 kts 98°
2026-05-06 08:12 44.82177 20.29713 310 ft 18 kts 119°
2026-05-06 08:12 44.82033 20.30037 311 ft 71 kts 122°
2026-05-06 08:12 44.81660 20.30867 308 ft 128 kts 122°
2026-05-06 08:13 44.81134 20.32017 602 ft 145 kts 123°
2026-05-06 08:13 44.80580 20.33352 963 ft 167 kts 123°
2026-05-06 08:13 44.79966 20.34758 1625 ft 172 kts 124°
2026-05-06 08:13 44.79312 20.36229 2288 ft 184 kts 122°
2026-05-06 08:14 44.78616 20.37856 2905 ft 205 kts 123°
2026-05-06 08:14 44.77824 20.39651 3458 ft 227 kts 124°
2026-05-06 08:14 44.76956 20.41625 4126 ft 245 kts 122°
2026-05-06 08:14 44.76078 20.43659 5262 ft 245 kts 123°
2026-05-06 08:15 44.75169 20.45735 5681 ft 252 kts 123°
2026-05-06 08:15 44.74254 20.47837 5805 ft 252 kts 123°
2026-05-06 08:15 44.73341 20.49915 5915 ft 253 kts 123°
2026-05-06 08:15 44.72461 20.52093 5929 ft 264 kts 112°
2026-05-06 08:16 44.72254 20.54673 5918 ft 272 kts 80°
2026-05-06 08:16 44.73006 20.57114 5999 ft 278 kts 52°
2026-05-06 08:16 44.74513 20.58811 5996 ft 281 kts 23°
2026-05-06 08:16 44.76391 20.59562 5994 ft 282 kts 13°
2026-05-06 08:17 44.78295 20.60236 5979 ft 283 kts 14°
2026-05-06 08:17 44.80206 20.60918 5995 ft 283 kts 13°
2026-05-06 08:17 44.82127 20.61600 6211 ft 283 kts 13°
2026-05-06 08:17 44.84036 20.62281 7148 ft 285 kts 13°
2026-05-06 08:18 44.85973 20.62970 8010 ft 289 kts 13°
2026-05-06 08:18 44.87946 20.63597 8893 ft 292 kts
2026-05-06 08:18 44.89946 20.63255 9826 ft 291 kts 338°
2026-05-06 08:18 44.91771 20.61998 10620 ft 294 kts 330°
2026-05-06 08:19 44.93586 20.60642 11477 ft 297 kts 330°
2026-05-06 08:19 44.95414 20.59257 12379 ft 300 kts 330°
2026-05-06 08:19 44.97260 20.57845 13313 ft 304 kts 330°
2026-05-06 08:19 44.99127 20.56404 14203 ft 307 kts 329°
2026-05-06 08:20 45.00994 20.54960 15017 ft 312 kts 329°
2026-05-06 08:20 45.02910 20.53476 15833 ft 316 kts 329°
2026-05-06 08:20 45.04855 20.51966 16644 ft 321 kts 330°
2026-05-06 08:20 45.06827 20.50433 17438 ft 326 kts 329°
2026-05-06 08:21 45.08826 20.48878 18231 ft 330 kts 329°
2026-05-06 08:21 45.10852 20.47302 18919 ft 334 kts 329°
2026-05-06 08:21 45.12890 20.45714 19653 ft 335 kts 329°
2026-05-06 08:21 45.14940 20.44117 20365 ft 337 kts 329°
2026-05-06 08:22 45.17003 20.42506 21059 ft 339 kts 329°
2026-05-06 08:22 45.19079 20.40884 21741 ft 342 kts 329°
2026-05-06 08:22 45.21169 20.39250 22404 ft 344 kts 329°
2026-05-06 08:22 45.23272 20.37606 23072 ft 347 kts 329°
2026-05-06 08:23 45.25390 20.35947 23691 ft 349 kts 329°
2026-05-06 08:23 45.27526 20.34274 24203 ft 352 kts 329°
2026-05-06 08:23 45.29675 20.32587 24719 ft 354 kts 329°
2026-05-06 08:23 45.31808 20.30914 25224 ft 356 kts 329°
2026-05-06 08:24 45.33980 20.29207 25721 ft 358 kts 329°
2026-05-06 08:24 45.36169 20.27486 26216 ft 360 kts 329°
2026-05-06 08:24 45.38368 20.25755 26708 ft 362 kts 329°
2026-05-06 08:24 45.40579 20.24016 27184 ft 365 kts 329°
2026-05-06 08:25 45.42989 20.22675 27264 ft 383 kts 346°
2026-05-06 08:25 45.45700 20.22183 27291 ft 399 kts 350°
2026-05-06 08:25 45.48498 20.21647 27313 ft 413 kts 350°
2026-05-06 08:25 45.51389 20.21112 27482 ft 423 kts 350°
2026-05-06 08:26 45.54315 20.20584 27993 ft 424 kts 350°
2026-05-06 08:26 45.57215 20.20066 28405 ft 427 kts 350°
2026-05-06 08:26 45.60215 20.19531 28843 ft 430 kts 350°
2026-05-06 08:26 45.63194 20.18999 29269 ft 433 kts 350°
2026-05-06 08:27 45.66150 20.18471 29682 ft 435 kts 350°
2026-05-06 08:27 45.69171 20.17932 30083 ft 438 kts 350°
2026-05-06 08:27 45.72205 20.17389 30435 ft 441 kts 349°
2026-05-06 08:27 45.75256 20.16842 30799 ft 443 kts 349°
2026-05-06 08:28 45.78315 20.16294 31156 ft 445 kts 349°
2026-05-06 08:28 45.81401 20.15740 31517 ft 447 kts 349°
2026-05-06 08:28 45.84497 20.15184 31864 ft 449 kts 349°
2026-05-06 08:28 45.87595 20.14626 32209 ft 450 kts 349°
2026-05-06 08:29 45.90711 20.14065 32637 ft 450 kts 349°
2026-05-06 08:29 45.93815 20.13506 33131 ft 448 kts 349°
2026-05-06 08:29 45.96903 20.12948 33628 ft 447 kts 349°
2026-05-06 08:29 45.99987 20.12391 33974 ft 448 kts 349°
2026-05-06 08:30 46.06148 20.11277 33987 ft 444 kts 349°
2026-05-06 08:30 46.12233 20.10172 33978 ft 444 kts 349°
2026-05-06 08:31 46.18362 20.08905 33982 ft 443 kts 347°
2026-05-06 08:31 46.24456 20.07481 33978 ft 444 kts 347°
2026-05-06 08:32 46.30565 20.06067 33974 ft 444 kts 347°
2026-05-06 08:32 46.36627 20.04662 33978 ft 444 kts 347°
2026-05-06 08:33 46.42732 20.03244 33965 ft 444 kts 347°
2026-05-06 08:33 46.48840 20.01823 33973 ft 444 kts 347°
2026-05-06 08:34 46.57992 19.99687 33963 ft 444 kts 347°
2026-05-06 08:35 46.64095 19.98259 33962 ft 444 kts 347°
2026-05-06 08:35 46.70205 19.96825 33965 ft 445 kts 347°
2026-05-06 08:36 46.76280 19.95396 33966 ft 445 kts 347°
2026-05-06 08:36 46.82391 19.93956 33964 ft 445 kts 347°
2026-05-06 08:37 46.87526 19.92743 33969 ft 445 kts 347°
2026-05-06 08:37 46.93612 19.91302 33967 ft 446 kts 347°
2026-05-06 08:38 46.99739 19.89849 33967 ft 446 kts 347°
2026-05-06 08:38 47.05869 19.88392 33964 ft 446 kts 347°
2026-05-06 08:39 47.18772 19.85312 33954 ft 447 kts 347°
2026-05-06 08:40 47.24875 19.83850 33950 ft 448 kts 347°
2026-05-06 08:40 47.31036 19.82371 33945 ft 449 kts 347°
2026-05-06 08:41 47.37211 19.80885 33939 ft 449 kts 347°
2026-05-06 08:41 47.43381 19.79396 33943 ft 450 kts 347°
2026-05-06 08:42 47.49568 19.77901 33942 ft 450 kts 347°
2026-05-06 08:42 47.55758 19.76400 33936 ft 451 kts 347°
2026-05-06 08:43 47.61956 19.74894 33938 ft 452 kts 347°
2026-05-06 08:43 47.68157 19.73384 33934 ft 452 kts 347°
2026-05-06 08:44 47.74367 19.71868 33928 ft 452 kts 347°
2026-05-06 08:44 47.80597 19.70343 33937 ft 453 kts 347°
2026-05-06 08:45 47.86829 19.68814 33927 ft 454 kts 347°
2026-05-06 08:45 47.93065 19.67281 33932 ft 454 kts 347°
2026-05-06 08:46 47.99308 19.65742 33927 ft 455 kts 347°
2026-05-06 08:46 48.05524 19.64206 33925 ft 456 kts 347°
2026-05-06 08:47 48.11787 19.62655 33922 ft 456 kts 347°
2026-05-06 08:47 48.18047 19.61101 33919 ft 456 kts 347°
2026-05-06 08:48 48.24358 19.59880 33906 ft 460 kts 359°
2026-05-06 08:48 48.30781 19.60163 33923 ft 462 kts 358°
2026-05-06 08:49 48.37215 19.60401 33912 ft 462 kts 358°
2026-05-06 08:49 48.43651 19.60647 33921 ft 463 kts 358°
2026-05-06 08:50 48.50097 19.60896 33914 ft 463 kts 358°
2026-05-06 08:50 48.56513 19.61145 33921 ft 464 kts 358°
2026-05-06 08:51 48.62987 19.61397 33920 ft 465 kts 358°
2026-05-06 08:51 48.69460 19.61650 33854 ft 463 kts 358°
2026-05-06 08:51 48.72669 19.61775 32999 ft 463 kts 358°
2026-05-06 08:52 48.75910 19.61901 31969 ft 469 kts 358°
2026-05-06 08:52 48.79166 19.62029 31316 ft 466 kts 358°
2026-05-06 08:52 48.82378 19.62156 30897 ft 458 kts 358°
2026-05-06 08:52 48.85540 19.62280 30391 ft 453 kts 358°
2026-05-06 08:53 48.88646 19.62402 29762 ft 450 kts 358°
2026-05-06 08:53 48.91771 19.62526 29124 ft 447 kts 358°
2026-05-06 08:53 48.94870 19.62648 28557 ft 444 kts 358°
2026-05-06 08:53 48.97942 19.62770 28007 ft 440 kts 358°
2026-05-06 08:54 49.00984 19.62890 27444 ft 436 kts 358°
2026-05-06 08:54 49.04009 19.63009 26907 ft 433 kts 358°
2026-05-06 08:54 49.07011 19.63128 26352 ft 430 kts 358°
2026-05-06 08:54 49.09993 19.63247 25821 ft 427 kts 358°
2026-05-06 08:55 49.12960 19.63365 25287 ft 425 kts 358°
2026-05-06 08:55 49.14916 19.63443 24930 ft 424 kts 359°
2026-05-06 08:55 49.17861 19.63560 24402 ft 422 kts 359°
2026-05-06 08:55 49.20798 19.63677 23876 ft 421 kts 359°
2026-05-06 08:56 49.23722 19.63794 23336 ft 420 kts 359°
2026-05-06 08:56 49.26634 19.63910 22742 ft 418 kts 359°
2026-05-06 08:56 49.29521 19.64025 22232 ft 414 kts 359°
2026-05-06 08:56 49.32398 19.64140 21748 ft 411 kts 359°
2026-05-06 08:57 49.35243 19.64255 21260 ft 407 kts 359°
2026-05-06 08:57 49.38074 19.64368 20787 ft 404 kts 359°
2026-05-06 08:57 49.40845 19.64479 20322 ft 402 kts 359°
2026-05-06 08:57 49.43633 19.64592 19859 ft 400 kts 359°
2026-05-06 08:58 49.46439 19.64510 19316 ft 397 kts 351°
2026-05-06 08:58 49.49135 19.64073 18924 ft 394 kts 352°
2026-05-06 08:58 49.51854 19.63688 18507 ft 391 kts 352°
2026-05-06 08:58 49.54560 19.63325 18064 ft 389 kts 352°
2026-05-06 08:59 49.57253 19.62974 17579 ft 387 kts 352°
2026-05-06 08:59 49.59926 19.62632 17135 ft 385 kts 352°
2026-05-06 08:59 49.62583 19.62290 16701 ft 382 kts 352°
2026-05-06 08:59 49.65221 19.61955 16283 ft 379 kts 352°
2026-05-06 09:00 49.67838 19.61620 15858 ft 376 kts 352°
2026-05-06 09:00 49.70456 19.61285 15356 ft 377 kts 352°
2026-05-06 09:00 49.73065 19.60952 14926 ft 375 kts 352°
2026-05-06 09:00 49.75057 19.60697 14620 ft 373 kts 352°
2026-05-06 09:01 49.77639 19.60366 14219 ft 370 kts 352°
2026-05-06 09:01 49.80195 19.60038 13808 ft 368 kts 352°
2026-05-06 09:01 49.82749 19.59709 13380 ft 367 kts 352°
2026-05-06 09:01 49.85279 19.59384 12920 ft 364 kts 352°
2026-05-06 09:02 49.87795 19.59059 12528 ft 361 kts 352°
2026-05-06 09:02 49.90284 19.58739 12126 ft 358 kts 352°
2026-05-06 09:02 49.92727 19.58424 11720 ft 355 kts 352°
2026-05-06 09:02 49.95210 19.58102 11328 ft 352 kts 352°
2026-05-06 09:03 49.97645 19.57787 10923 ft 350 kts 352°
2026-05-06 09:03 50.00031 19.57478 10629 ft 344 kts 352°
2026-05-06 09:03 50.02383 19.57173 10478 ft 334 kts 352°
2026-05-06 09:03 50.04667 19.56877 10334 ft 325 kts 352°
2026-05-06 09:04 50.06889 19.56588 10179 ft 316 kts 352°
2026-05-06 09:04 50.09055 19.56306 10035 ft 308 kts 352°
2026-05-06 09:04 50.11170 19.56031 9854 ft 302 kts 352°
2026-05-06 09:04 50.13258 19.55758 9510 ft 301 kts 352°
2026-05-06 09:05 50.15339 19.55488 9178 ft 300 kts 352°
2026-05-06 09:05 50.17416 19.55217 8851 ft 299 kts 352°
2026-05-06 09:05 50.19483 19.54949 8524 ft 298 kts 352°
2026-05-06 09:05 50.21543 19.54679 8207 ft 297 kts 352°
2026-05-06 09:06 50.23596 19.54409 7878 ft 296 kts 352°
2026-05-06 09:06 50.25645 19.54142 7590 ft 295 kts 352°
2026-05-06 09:06 50.27694 19.53873 7249 ft 295 kts 352°
2026-05-06 09:06 50.29746 19.53604 6925 ft 295 kts 352°
2026-05-06 09:07 50.31790 19.53336 6612 ft 294 kts 351°
2026-05-06 09:07 50.33830 19.53066 6285 ft 294 kts 352°
2026-05-06 09:07 50.35863 19.52800 5989 ft 290 kts 351°
2026-05-06 09:07 50.37838 19.52543 5686 ft 279 kts 351°
2026-05-06 09:08 50.39699 19.52298 5480 ft 264 kts 351°
2026-05-06 09:08 50.41465 19.52065 5399 ft 245 kts 351°
2026-05-06 09:08 50.43106 19.51849 5314 ft 227 kts 350°
2026-05-06 09:08 50.44627 19.51651 5260 ft 213 kts 350°
2026-05-06 09:09 50.46007 19.51135 5047 ft 198 kts 323°
2026-05-06 09:09 50.46916 19.49636 4805 ft 188 kts 292°
2026-05-06 09:09 50.47224 19.47708 4669 ft 179 kts 272°
2026-05-06 09:09 50.47311 19.45808 4573 ft 171 kts 270°
2026-05-06 09:10 50.47367 19.43979 4388 ft 163 kts 269°
2026-05-06 09:10 50.47402 19.42262 4349 ft 153 kts 270°
2026-05-06 09:10 50.47433 19.40625 4262 ft 146 kts 269°
2026-05-06 09:10 50.47455 19.39074 4128 ft 137 kts 268°
2026-05-06 09:11 50.47471 19.37640 3958 ft 124 kts 268°
2026-05-06 09:11 50.47484 19.36343 3861 ft 121 kts 269°
2026-05-06 09:11 50.47499 19.34878 3828 ft 156 kts 268°
2026-05-06 09:11 50.47511 19.33073 3522 ft 168 kts 268°
2026-05-06 09:12 50.47522 19.31332 3318 ft 150 kts 269°
2026-05-06 09:12 50.47529 19.29799 3186 ft 135 kts 268°
2026-05-06 09:12 50.47529 19.28334 3137 ft 133 kts 267°
2026-05-06 09:12 50.47541 19.26877 3059 ft 134 kts 267°
2026-05-06 09:13 50.47544 19.25402 3035 ft 136 kts 266°
2026-05-06 09:13 50.47597 19.23915 2688 ft 137 kts 272°
2026-05-06 09:13 50.47584 19.22439 2476 ft 133 kts 265°
2026-05-06 09:13 50.47568 19.20991 2305 ft 133 kts 267°
2026-05-06 09:14 50.47573 19.19529 2125 ft 135 kts 270°
2026-05-06 09:14 50.47574 19.18052 1880 ft 136 kts 266°
2026-05-06 09:14 50.47557 19.16600 1728 ft 131 kts 271°
2026-05-06 09:14 50.47595 19.15185 1555 ft 133 kts 267°
2026-05-06 09:15 50.47591 19.13711 1461 ft 136 kts 268°
2026-05-06 09:15 50.47608 19.12258 1305 ft 130 kts 268°
2026-05-06 09:15 50.47589 19.10848 1114 ft 127 kts 264°
2026-05-06 09:15 50.47591 19.09491 1002 ft 112 kts 270°
2026-05-06 09:16 50.47596 19.08654 1002 ft 48 kts 270°
2026-05-06 09:16 50.47600 19.08148 1000 ft 44 kts 271°
2026-05-06 09:16 50.47598 19.07684 1003 ft 41 kts 272°
2026-05-06 09:16 50.47595 19.07256 1004 ft 36 kts 262°
2026-05-06 09:17 50.47535 19.06986 1002 ft 10 kts 243°
2026-05-06 09:17 50.47523 19.06951 1001 ft 0 kts 241°
2026-05-06 09:18 50.47522 19.06948 1001 ft 2 kts 241°
2026-05-06 09:18 50.47500 19.06885 1001 ft 12 kts 241°
2026-05-06 09:18 50.47427 19.06893 1001 ft 16 kts 109°
2026-05-06 09:18 50.47426 19.07099 1001 ft 26 kts 90°
2026-05-06 09:19 50.47426 19.07351 1001 ft 13 kts 90°
2026-05-06 09:19 50.47384 19.07447 1001 ft 12 kts 183°
2026-05-06 09:19 50.47291 19.07442 1002 ft 15 kts 182°
2026-05-06 09:19 50.47231 19.07412 1002 ft 7 kts 197°
2026-05-06 09:20 50.47185 19.07408 1002 ft 0 kts 181°
2026-05-06 09:20 50.47183 19.07408 1002 ft 0 kts 181°